{"data":{"norad_id":53215,"epoch":"2026-05-25T02:52:55.999776Z","epoch_age_seconds":61902,"freshness":"FRESH","line1":"1 53215U 22084AC  26145.12009259 -.00000369  00000+0 -21514-4 0  9994","line2":"2 53215  97.4503 206.1956 0001728 131.8178 228.3197 15.05655725211403","mean_motion":15.05655725,"eccentricity":0.0001728,"inclination_deg":97.4503,"raan_deg":206.1956,"arg_perigee_deg":131.8178,"mean_anomaly_deg":228.3197,"bstar":-2.1514e-5,"rev_number":21140,"period_min":95.639393261697,"perigee_km":548.29649865833,"apogee_km":550.69068779135,"semimajor_km":6927.6305932248,"source":"CELESTRAK","updated_at":"2026-05-25T13:38:17.354956Z"}}